Home   Weather   India   Gandhinagar   Past weeks
Flag for India

Past Weather in Gandhinagar, Gujarat, India — Yesterday and Last 2 Weeks

Currently: 79 °F. More clouds than sun. (Weather station: Ahmadabad Airport, India). See more current weather

Past Weather in Gandhinagar — Graph

°F

Gandhinagar Temperature Yesterday

Maximum temperature yesterday: 91 °F (at 2:30 pm)
Minimum temperature yesterday: 77 °F (at 6:00 am)
Average temperature yesterday: 87 °F

High & Low Weather Summary for the Past Weeks

 TemperatureHumidityPressure
High102 °F (Jul 10, 4:00 pm)100% (Jul 11, 7:30 pm)29.65 "Hg (Jul 11, 7:30 pm)
Low77 °F (Jul 11, 8:30 pm)42% (Jul 10, 4:00 pm)29.36 "Hg (Jul 22, 4:30 pm)
Average87 °F79%29.51 "Hg
* Reported Jul 9 7:30 pm — Jul 24 7:30 pm, Gandhinagar. Weather by CustomWeather, © 2021

Note: Actual official high and low records may vary slightly from our data, if they occured in-between our weather recording intervals... More about our weather records

Gandhinagar Weather History for the Previous 24 Hours

Scroll right to see more
 ConditionsComfort  
Time TempWeatherWind HumidityBarometerVisibility
7:30 pm
Sat, Jul 24
79 °FMore clouds than sun.12 mph100%29.50 "Hg1 mi
7:00 pm82 °FLight rain. More clouds than sun.9 mph89%29.50 "Hg2 mi
6:20 pm86 °FMore clouds than sun.9 mph79%29.45 "Hg3 mi
6:00 pm91 °FBroken clouds.6 mph67%29.45 "Hg4 mi
5:30 pm91 °FPartly sunny.6 mph67%29.45 "Hg4 mi
5:00 pm91 °FBroken clouds.6 mph67%29.45 "Hg4 mi
4:30 pm91 °FPartly sunny.6 mph67%29.45 "Hg4 mi
4:00 pm90 °FPartly sunny.8 mph67%29.45 "Hg4 mi
3:30 pm90 °FBroken clouds.9 mph67%29.47 "Hg4 mi
3:00 pm90 °FBroken clouds.12 mph67%29.50 "Hg4 mi
2:30 pm93 °FBroken clouds.8 mph63%29.50 "Hg4 mi
1:30 pm91 °FBroken clouds.10 mph67%29.53 "Hg4 mi
1:00 pm90 °FBroken clouds.9 mph71%29.53 "Hg4 mi
12:30 pm88 °FBroken clouds.9 mph75%29.56 "Hg3 mi
12:00 pm88 °FPartly sunny.9 mph75%29.56 "Hg3 mi
11:30 am88 °FBroken clouds.9 mph75%29.56 "Hg3 mi
11:00 am86 °FMore clouds than sun.7 mph75%29.59 "Hg3 mi
10:30 am86 °FMore clouds than sun.7 mph75%29.59 "Hg3 mi
10:00 am84 °FMore clouds than sun.9 mph79%29.56 "Hg3 mi
9:30 am84 °FPartly sunny.9 mph79%29.56 "Hg3 mi
9:00 am84 °FPartly sunny.9 mph74%29.56 "Hg3 mi
8:30 am82 °FPartly sunny.8 mph79%29.53 "Hg3 mi
8:00 am82 °FPartly sunny.8 mph79%29.53 "Hg2 mi
7:30 am82 °FBroken clouds.7 mph79%29.53 "Hg2 mi
7:00 am82 °FFog.7 mph84%29.50 "Hg2 mi
6:00 am82 °FFog.6 mph89%29.47 "Hg2 mi
5:30 am82 °FFog.6 mph89%29.47 "Hg2 mi
5:00 am82 °FPartly cloudy.7 mph89%29.45 "Hg2 mi
4:30 am82 °FPartly cloudy.8 mph89%29.45 "Hg2 mi
4:00 am82 °FPartly cloudy.6 mph84%29.45 "Hg2 mi
3:00 am82 °FPartly cloudy.6 mph84%29.47 "Hg2 mi
2:30 am82 °FPartly cloudy.3 mph84%29.47 "Hg2 mi
2:00 am81 °FPartly cloudy.No wind84%29.47 "Hg2 mi
1:00 am79 °FPartly cloudy.5 mph84%29.50 "Hg2 mi
12:30 am81 °FPartly cloudy.9 mph84%29.53 "Hg2 mi
12:00 am84 °FPartly cloudy.9 mph74%29.50 "Hg2 mi
11:30 pm
Fri, Jul 23
86 °FPartly cloudy.6 mph84%29.50 "Hg2 mi
11:00 pm88 °FPartly cloudy.7 mph79%29.50 "Hg2 mi
10:30 pm88 °FPartly cloudy.5 mph79%29.47 "Hg2 mi
10:00 pm88 °FPartly cloudy.5 mph79%29.47 "Hg2 mi
9:30 pm88 °FPartly cloudy.5 mph79%29.47 "Hg2 mi
9:00 pm88 °FPartly cloudy.3 mph79%29.45 "Hg2 mi
8:30 pm88 °FPartly cloudy.5 mph79%29.45 "Hg2 mi
8:00 pm88 °FPartly cloudy.6 mph79%29.45 "Hg2 mi
Weather by CustomWeather, © 2021

See weather overview